Time,TemperatureF,DewpointF,PressureIn,WindDirection,WindDirectionDegrees,WindSpeedMPH,WindSpeedGustMPH,Humidity,HourlyPrecipIn,Conditions,Clouds,dailyrainin,SolarRadiationWatts/m^2,SoftwareType,DateUTC
2013-12-11 00:03:00,-4.0,-10.0,-100.00,WSW,257,2.0,10.0,74,0.00,,,0.02,0.000000,,2013-12-11 05:03:00,
2013-12-11 00:10:00,-5.0,-11.0,-100.00,WNW,286,2.0,6.0,75,0.00,,,0.02,0.000000,,2013-12-11 05:10:00,
2013-12-11 00:43:00,-5.0,-11.0,-100.00,WNW,286,2.0,6.0,75,0.00,,,0.02,0.000000,,2013-12-11 05:43:00,
2013-12-11 00:53:00,-5.0,-11.0,-100.00,WNW,286,2.0,6.0,75,0.00,,,0.02,0.000000,,2013-12-11 05:53:00,
2013-12-11 01:02:00,-5.0,-11.0,-100.00,WNW,286,2.0,6.0,75,0.00,,,0.02,0.000000,,2013-12-11 06:02:00,
2013-12-11 01:10:00,-5.0,-11.0,-100.00,WSW,258,2.0,6.0,75,0.00,,,0.02,0.000000,,2013-12-11 06:10:00,
2013-12-11 01:42:00,-5.0,-11.0,-100.00,WSW,258,2.0,6.0,75,0.00,,,0.02,0.000000,,2013-12-11 06:42:00,
2013-12-11 01:53:00,-5.0,-11.0,-100.00,WSW,258,2.0,6.0,75,0.00,,,0.02,0.000000,,2013-12-11 06:53:00,
2013-12-11 02:02:00,-5.0,-11.0,-100.00,WSW,258,2.0,6.0,75,0.00,,,0.02,0.000000,,2013-12-11 07:02:00,
2013-12-11 02:10:00,-7.0,-13.0,-100.00,North,-999,0.0,4.0,75,0.00,,,0.02,0.000000,,2013-12-11 07:10:00,
2013-12-11 02:43:00,-7.0,-13.0,-100.00,North,-999,0.0,4.0,75,0.00,,,0.02,0.000000,,2013-12-11 07:43:00,
2013-12-11 02:52:00,-7.0,-13.0,-100.00,North,-999,0.0,4.0,75,0.00,,,0.02,0.000000,,2013-12-11 07:52:00,
2013-12-11 03:02:00,-7.0,-13.0,-100.00,North,-999,0.0,4.0,75,0.00,,,0.02,0.000000,,2013-12-11 08:02:00,
2013-12-11 03:10:00,-7.0,-13.0,-100.00,NW,310,1.0,4.0,76,0.00,,,0.02,0.000000,,2013-12-11 08:10:00,
2013-12-11 03:42:00,-7.0,-13.0,-100.00,NW,310,1.0,4.0,76,0.00,,,0.02,0.000000,,2013-12-11 08:42:00,
2013-12-11 03:52:00,-7.0,-13.0,-100.00,NW,310,1.0,4.0,76,0.00,,,0.02,0.000000,,2013-12-11 08:52:00,
2013-12-11 04:02:00,-7.0,-13.0,-100.00,NW,310,1.0,4.0,76,0.00,,,0.02,0.000000,,2013-12-11 09:02:00,
2013-12-11 04:10:00,-7.0,-13.0,-100.00,West,267,1.0,8.0,73,0.00,,,0.02,0.000000,,2013-12-11 09:10:00,
2013-12-11 04:43:00,-7.0,-13.0,-100.00,West,267,1.0,8.0,73,0.00,,,0.02,0.000000,,2013-12-11 09:43:00,
2013-12-11 04:54:00,-7.0,-13.0,-100.00,West,267,1.0,8.0,73,0.00,,,0.02,0.000000,,2013-12-11 09:54:00,
2013-12-11 05:03:00,-7.0,-13.0,-100.00,West,267,1.0,8.0,73,0.00,,,0.02,0.000000,,2013-12-11 10:03:00,
2013-12-11 05:10:00,-8.0,-14.0,-100.00,NNW,329,2.0,7.0,73,0.00,,,0.02,0.000000,,2013-12-11 10:10:00,
2013-12-11 05:43:00,-8.0,-14.0,-100.00,NNW,329,2.0,7.0,73,0.00,,,0.02,0.000000,,2013-12-11 10:43:00,
2013-12-11 05:53:00,-8.0,-14.0,-100.00,NNW,329,2.0,7.0,73,0.00,,,0.02,0.000000,,2013-12-11 10:53:00,
2013-12-11 06:03:00,-8.0,-14.0,-100.00,NNW,329,2.0,7.0,73,0.00,,,0.02,0.000000,,2013-12-11 11:03:00,
2013-12-11 06:10:00,-9.0,-16.0,-100.00,NW,307,2.0,6.0,71,0.00,,,0.02,0.000000,,2013-12-11 11:10:00,
2013-12-11 06:42:00,-9.0,-16.0,-100.00,NW,307,2.0,6.0,71,0.00,,,0.02,0.000000,,2013-12-11 11:42:00,
2013-12-11 06:53:00,-9.0,-16.0,-100.00,NW,307,2.0,6.0,71,0.00,,,0.02,0.000000,,2013-12-11 11:53:00,
2013-12-11 07:02:00,-9.0,-16.0,-100.00,NW,307,2.0,6.0,71,0.00,,,0.02,0.000000,,2013-12-11 12:02:00,
2013-12-11 07:10:00,-10.0,-17.0,-100.00,NW,316,4.0,9.0,70,0.00,,,-99.99,0.000000,,2013-12-11 12:10:00,
2013-12-11 07:42:00,-10.0,-17.0,-100.00,NW,316,4.0,9.0,70,0.00,,,-99.99,0.000000,,2013-12-11 12:42:00,
2013-12-11 07:52:00,-10.0,-17.0,-100.00,NW,316,4.0,9.0,70,0.00,,,-99.99,0.000000,,2013-12-11 12:52:00,
2013-12-11 08:02:00,-10.0,-17.0,-100.00,NW,316,4.0,9.0,70,0.00,,,-99.99,0.000000,,2013-12-11 13:02:00,
2013-12-11 08:10:00,-11.0,-18.0,-100.00,WNW,283,2.0,8.0,70,0.00,,,0.01,0.000000,,2013-12-11 13:10:00,
2013-12-11 08:42:00,-11.0,-18.0,-100.00,WNW,283,2.0,8.0,70,0.00,,,0.01,0.000000,,2013-12-11 13:42:00,
2013-12-11 08:52:00,-11.0,-18.0,-100.00,WNW,283,2.0,8.0,70,0.00,,,0.01,0.000000,,2013-12-11 13:52:00,
2013-12-11 09:02:00,-11.0,-18.0,-100.00,WNW,283,2.0,8.0,70,0.00,,,0.01,0.000000,,2013-12-11 14:02:00,
2013-12-11 09:10:00,-12.0,-19.0,-100.00,WNW,297,2.0,9.0,69,0.00,,,-99.99,1.000000,,2013-12-11 14:10:00,
2013-12-11 09:42:00,-12.0,-19.0,-100.00,WNW,297,2.0,9.0,69,0.00,,,-99.99,1.000000,,2013-12-11 14:42:00,
2013-12-11 09:52:00,-12.0,-19.0,-100.00,WNW,297,2.0,9.0,69,0.00,,,-99.99,1.000000,,2013-12-11 14:52:00,
2013-12-11 10:02:00,-12.0,-19.0,-100.00,WNW,297,2.0,9.0,69,0.00,,,-99.99,1.000000,,2013-12-11 15:02:00,
2013-12-11 10:10:00,-10.0,-18.0,-100.00,NW,311,4.0,12.0,68,0.00,,,-99.99,4.000000,,2013-12-11 15:10:00,
2013-12-11 10:43:00,-10.0,-18.0,-100.00,NW,311,4.0,12.0,68,0.00,,,-99.99,4.000000,,2013-12-11 15:43:00,
2013-12-11 10:54:00,-10.0,-18.0,-100.00,NW,311,4.0,12.0,68,0.00,,,-99.99,4.000000,,2013-12-11 15:54:00,
2013-12-11 11:04:00,-10.0,-18.0,-100.00,NW,311,4.0,12.0,68,0.00,,,-99.99,4.000000,,2013-12-11 16:04:00,
2013-12-11 11:10:00,-8.0,-16.0,-100.00,NW,316,4.0,10.0,67,0.00,,,0.00,10.000000,,2013-12-11 16:10:00,
2013-12-11 11:43:00,-8.0,-16.0,-100.00,NW,316,4.0,10.0,67,0.00,,,0.00,10.000000,,2013-12-11 16:43:00,
2013-12-11 11:53:00,-8.0,-16.0,-100.00,NW,316,4.0,10.0,67,0.00,,,0.00,10.000000,,2013-12-11 16:53:00,
2013-12-11 12:02:00,-8.0,-16.0,-100.00,NW,316,4.0,10.0,67,0.00,,,0.00,10.000000,,2013-12-11 17:02:00,
2013-12-11 12:10:00,-7.0,-16.0,-100.00,NW,310,5.0,12.0,65,0.00,,,0.00,10.000000,,2013-12-11 17:10:00,
2013-12-11 12:43:00,-7.0,-16.0,-100.00,NW,310,5.0,12.0,65,0.00,,,0.00,10.000000,,2013-12-11 17:43:00,
2013-12-11 12:52:00,-7.0,-16.0,-100.00,NW,310,5.0,12.0,65,0.00,,,0.00,10.000000,,2013-12-11 17:52:00,
2013-12-11 13:02:00,-7.0,-16.0,-100.00,NW,310,5.0,12.0,65,0.00,,,0.00,10.000000,,2013-12-11 18:02:00,
2013-12-11 13:10:00,-3.0,-14.0,-100.00,NNW,329,5.0,12.0,59,0.00,,,0.00,59.000000,,2013-12-11 18:10:00,
2013-12-11 13:43:00,-3.0,-14.0,-100.00,NNW,329,5.0,12.0,59,0.00,,,0.00,59.000000,,2013-12-11 18:43:00,
2013-12-11 13:52:00,-3.0,-14.0,-100.00,NNW,329,5.0,12.0,59,0.00,,,0.00,59.000000,,2013-12-11 18:52:00,
2013-12-11 14:02:00,-3.0,-14.0,-100.00,NNW,329,5.0,12.0,59,0.00,,,0.00,59.000000,,2013-12-11 19:02:00,
2013-12-11 14:10:00,0.0,-13.0,-100.00,WNW,298,5.0,12.0,53,0.00,,,0.00,63.000000,,2013-12-11 19:10:00,
2013-12-11 14:42:00,0.0,-13.0,-100.00,WNW,298,5.0,12.0,53,0.00,,,0.00,63.000000,,2013-12-11 19:42:00,
2013-12-11 14:52:00,0.0,-13.0,-100.00,WNW,298,5.0,12.0,53,0.00,,,0.00,63.000000,,2013-12-11 19:52:00,
2013-12-11 15:02:00,0.0,-13.0,-100.00,WNW,298,5.0,12.0,53,0.00,,,0.00,63.000000,,2013-12-11 20:02:00,
2013-12-11 15:10:00,0.0,-12.0,-100.00,WNW,283,5.0,11.0,55,0.00,,,0.00,52.000000,,2013-12-11 20:10:00,
2013-12-11 15:43:00,0.0,-12.0,-100.00,WNW,283,5.0,11.0,55,0.00,,,0.00,52.000000,,2013-12-11 20:43:00,
2013-12-11 15:52:00,0.0,-12.0,-100.00,WNW,283,5.0,11.0,55,0.00,,,0.00,52.000000,,2013-12-11 20:52:00,
2013-12-11 16:02:00,0.0,-12.0,-100.00,WNW,283,5.0,11.0,55,0.00,,,0.00,52.000000,,2013-12-11 21:02:00,
2013-12-11 16:10:00,0.0,-12.0,-100.00,WSW,254,3.0,12.0,55,0.00,,,0.00,36.000000,,2013-12-11 21:10:00,
2013-12-11 16:43:00,0.0,-12.0,-100.00,WSW,254,3.0,12.0,55,0.00,,,0.00,36.000000,,2013-12-11 21:43:00,
2013-12-11 16:53:00,0.0,-12.0,-100.00,WSW,254,3.0,12.0,55,0.00,,,0.00,36.000000,,2013-12-11 21:53:00,
2013-12-11 17:03:00,0.0,-12.0,-100.00,WSW,254,3.0,12.0,55,0.00,,,0.00,36.000000,,2013-12-11 22:03:00,
2013-12-11 17:10:00,-5.0,-14.0,-100.00,West,260,3.0,9.0,64,0.00,,,0.00,6.000000,,2013-12-11 22:10:00,
2013-12-11 17:42:00,-5.0,-14.0,-100.00,West,260,3.0,9.0,64,0.00,,,0.00,6.000000,,2013-12-11 22:42:00,
2013-12-11 17:53:00,-5.0,-14.0,-100.00,West,260,3.0,9.0,64,0.00,,,0.00,6.000000,,2013-12-11 22:53:00,
2013-12-11 18:02:00,-5.0,-14.0,-100.00,West,260,3.0,9.0,64,0.00,,,0.00,6.000000,,2013-12-11 23:02:00,
2013-12-11 18:10:00,-6.0,-14.0,-100.00,WSW,256,2.0,8.0,67,0.00,,,0.00,0.000000,,2013-12-11 23:10:00,
2013-12-11 18:43:00,-6.0,-14.0,-100.00,WSW,256,2.0,8.0,67,0.00,,,0.00,0.000000,,2013-12-11 23:43:00,
2013-12-11 18:52:00,-6.0,-14.0,-100.00,WSW,256,2.0,8.0,67,0.00,,,0.00,0.000000,,2013-12-11 23:52:00,
2013-12-11 19:02:00,-6.0,-14.0,-100.00,WSW,256,2.0,8.0,67,0.00,,,0.00,0.000000,,2013-12-12 00:02:00,
2013-12-11 19:10:00,-8.0,-15.0,-100.00,WSW,253,2.0,6.0,69,0.00,,,0.00,0.000000,,2013-12-12 00:10:00,
2013-12-11 19:42:00,-8.0,-15.0,-100.00,WSW,253,2.0,6.0,69,0.00,,,0.00,0.000000,,2013-12-12 00:42:00,
2013-12-11 19:52:00,-8.0,-15.0,-100.00,WSW,253,2.0,6.0,69,0.00,,,0.00,0.000000,,2013-12-12 00:52:00,
2013-12-11 20:02:00,-8.0,-15.0,-100.00,WSW,253,2.0,6.0,69,0.00,,,0.00,0.000000,,2013-12-12 01:02:00,
2013-12-11 20:10:00,-9.0,-16.0,-100.00,SW,226,1.0,7.0,70,0.00,,,0.00,0.000000,,2013-12-12 01:10:00,
2013-12-11 20:42:00,-9.0,-16.0,-100.00,SW,226,1.0,7.0,70,0.00,,,0.00,0.000000,,2013-12-12 01:42:00,
2013-12-11 20:52:00,-9.0,-16.0,-100.00,SW,226,1.0,7.0,70,0.00,,,0.00,0.000000,,2013-12-12 01:52:00,
2013-12-11 21:01:00,-9.0,-16.0,-100.00,SW,226,1.0,7.0,70,0.00,,,0.00,0.000000,,2013-12-12 02:01:00,
2013-12-11 21:10:00,-10.0,-17.0,-100.00,SW,229,2.0,8.0,70,0.00,,,0.00,0.000000,,2013-12-12 02:10:00,
2013-12-11 21:52:00,-10.0,-17.0,-100.00,SW,229,2.0,8.0,70,0.00,,,0.00,0.000000,,2013-12-12 02:52:00,
2013-12-11 22:02:00,-10.0,-17.0,-100.00,SW,229,2.0,8.0,70,0.00,,,0.00,0.000000,,2013-12-12 03:02:00,
2013-12-11 22:10:00,-11.0,-18.0,-100.00,SW,236,2.0,5.0,70,0.00,,,0.00,0.000000,,2013-12-12 03:10:00,
2013-12-11 22:44:00,-11.0,-18.0,-100.00,SW,236,2.0,5.0,70,0.00,,,0.00,0.000000,,2013-12-12 03:44:00,
2013-12-11 22:53:00,-11.0,-18.0,-100.00,SW,236,2.0,5.0,70,0.00,,,0.00,0.000000,,2013-12-12 03:53:00,
2013-12-11 23:03:00,-11.0,-18.0,-100.00,SW,236,2.0,5.0,70,0.00,,,0.00,0.000000,,2013-12-12 04:03:00,
2013-12-11 23:10:00,-10.0,-17.0,-100.00,WSW,245,3.0,8.0,70,0.00,,,0.00,0.000000,,2013-12-12 04:10:00,
2013-12-11 23:43:00,-10.0,-17.0,-100.00,WSW,245,3.0,8.0,70,0.00,,,0.00,0.000000,,2013-12-12 04:43:00,
2013-12-11 23:53:00,-10.0,-17.0,-100.00,WSW,245,3.0,8.0,70,0.00,,,0.00,0.000000,,2013-12-12 04:53:00,